カタログに戻る

SL-8 DEB

運用中VLEO
NORAD 16867·DEBRIS·🇷🇺 Russia

打ち上げ Jul 16, 1986 から Plesetsk Cosmodrome

Loading…

次のパス (今後24時間)

TLE

最新Source: Space-Track

元期: Sep 14, 2026, 08:17 UTC

1 16867U 86052E   26257.34579656  .00012538  00000-0  64075-3 0  9990
2 16867  73.9959  31.4098 0008479 193.8540 166.2424 15.16685556142465

AllMySatでSL-8 DEBをリアルタイム追跡

Download on the App Store